DELTA 1 DEB, 10756

Orbit data source: Space-Track

DELTA 1 DEB, 10756 is space debris in SSO originally from a launch on Thu, 29 Jul 1976 UTC launched from the Air Force Western Test Range (AFWTR). Debris objects in space refer to the collection of defunct objects orbiting the Earth. Examples of debris include non-operational satellites, rocket bodies, and fragments generated from explosions, collisions, or faulty payload assembly.

Loading next visibility...
Identifier
10756, 1976-077BD
Orbit
SSO
Country
Flag of USUS
Related business
Manufacturer
Unknown
Mission
Spacecraft
Bus & Motor
Unknown
Mass
Unknown
Launch date (UTC)
1976-07-29 (50 years ago)
Launch vehicle
Unknown
Launch site
Air Force Western Test Range (AFWTR)
Object type
Payload
Rocket body
Debris
Shape & HBR
Unknown shape, 1.1 m
Radar Cross Section
Medium (>0.1 m² and <1 m²)

Expand to show TLE details & history
Last TLE update: 14 hours ago

TLE from 14 hours ago
0 DELTA 1 DEB
1 10756U 76077BD  26171.00571409  .00000601  00000-0  44587-2 0  9996
2 10756 101.0746  13.3991 0165227  92.2297 269.7700 12.41900859240297
Epoch: 2026-06-20T00:08Z
TLE epoch observation values (Epoch: 2026-06-20T00:08:13.697Z)
Latitude
0.00001°
Longitude
103.11548°
Altitude
1,503.816 km
Speed
7.112 km/s
True Right ascension
00h 53m 35s
True Declination
0° 00' 00"
Sunlit
Object was in daylight at epoch
Visualization orbit readout
Latitude
Unknown
Longitude
Unknown
Altitude
Unknown
Speed
Unknown
Apparent Right ascension
Unknown
Apparent Declination
Unknown
Sunlit
N/A
Visualization observer readout
Local Sidereal Time
01:23:36
Azimuth
Unknown
Elevation
Unknown
Doppler factor
Unknown
Orbital elements
Apogee altitude
1,626.177 km
Perigee altitude
1,365.97 km
Semi-major axis
7,874.211 km
Eccentricity
0.01652
Inclination
101.0746°
RAAN
13.3991°
Arg. of periapsis
92.2297°
True anomaly
267.87715°
Mean anomaly
269.77°
Eccentric anomaly
268.82352°
Mean motion
3.10622 °/min
Orbital period
115.9 mins
BSTAR
0.0044587
Loading maneuver chart data...
Computing Atmospheric mass density...
Loading historical data...
Loading historical data...
Loading historical data...
Loading historical data...
Loading historical data...
Loading historical data...
Loading historical data...

Documentation

Showing up to 5 results
|